Time,TemperatureF,DewpointF,PressureIn,WindDirection,WindDirectionDegrees,WindSpeedMPH,WindSpeedGustMPH,Humidity,HourlyPrecipIn,Conditions,Clouds,dailyrainin,SoftwareType,DateUTC
2014-12-21 00:02:00,-999.0,-99.9,-100.00,SW,218,26.0,32.0,-999,-99.99,,,-99.99,,2014-12-21 08:02:00,
2014-12-21 00:12:00,-999.0,-99.9,-100.00,SW,217,23.0,29.0,-999,-99.99,,,-99.99,,2014-12-21 08:12:00,
2014-12-21 00:22:00,52.0,-99.9,-100.00,SW,219,23.0,26.0,-999,-99.99,,,-99.99,,2014-12-21 08:22:00,
2014-12-21 00:32:00,-999.0,-99.9,-100.00,SW,219,23.0,25.0,-999,-99.99,,,-99.99,,2014-12-21 08:32:00,
2014-12-21 01:02:00,-999.0,-99.9,-100.00,SW,230,27.0,32.0,-999,-99.99,,,-99.99,,2014-12-21 09:02:00,
2014-12-21 01:22:00,-999.0,-99.9,-100.00,SW,231,25.0,28.0,-999,-99.99,,,-99.99,,2014-12-21 09:22:00,
2014-12-21 01:34:00,-999.0,-99.9,-100.00,SW,228,24.0,27.0,-999,-99.99,,,-99.99,,2014-12-21 09:34:00,
2014-12-21 01:53:00,-999.0,-99.9,-100.00,SW,234,20.0,24.0,-999,-99.99,,,-99.99,,2014-12-21 09:53:00,
2014-12-21 02:04:00,-999.0,-99.9,-100.00,SW,232,19.0,22.0,-999,-99.99,,,-99.99,,2014-12-21 10:04:00,
2014-12-21 02:13:00,52.0,-99.9,-100.00,SW,233,18.0,21.0,-999,-99.99,,,-99.99,,2014-12-21 10:13:00,
2014-12-21 02:23:00,-999.0,-99.9,-100.00,SW,235,18.0,21.0,-999,-99.99,,,-99.99,,2014-12-21 10:23:00,
2014-12-21 02:33:00,-999.0,-99.9,-100.00,SW,235,17.0,19.0,-999,-99.99,,,-99.99,,2014-12-21 10:33:00,
2014-12-21 02:42:00,-999.0,-99.9,-100.00,SW,233,17.0,19.0,-999,-99.99,,,-99.99,,2014-12-21 10:42:00,
2014-12-21 03:03:00,-999.0,-99.9,-100.00,WSW,238,16.0,19.0,-999,-99.99,,,-99.99,,2014-12-21 11:03:00,
2014-12-21 03:22:00,-999.0,-99.9,-100.00,WNW,282,6.0,7.0,-999,-99.99,,,-99.99,,2014-12-21 11:22:00,
2014-12-21 03:33:00,-999.0,-99.9,-100.00,NNW,330,6.0,7.0,-999,-99.99,,,-99.99,,2014-12-21 11:33:00,
2014-12-21 04:02:00,-999.0,-99.9,-100.00,NNW,333,4.0,6.0,-999,-99.99,,,-99.99,,2014-12-21 12:02:00,
2014-12-21 04:23:00,-999.0,-99.9,-100.00,SW,235,10.0,12.0,-999,-99.99,,,-99.99,,2014-12-21 12:23:00,
2014-12-21 04:32:00,-999.0,-99.9,-100.00,SW,221,13.0,17.0,-999,-99.99,,,-99.99,,2014-12-21 12:32:00,
2014-12-21 05:02:00,-999.0,-99.9,-100.00,SW,223,13.0,15.0,-999,-99.99,,,-99.99,,2014-12-21 13:02:00,
2014-12-21 05:12:00,-999.0,-99.9,-100.00,SW,222,12.0,16.0,-999,-99.99,,,-99.99,,2014-12-21 13:12:00,
2014-12-21 05:22:00,50.0,-99.9,-100.00,SW,222,13.0,15.0,-999,-99.99,,,-99.99,,2014-12-21 13:22:00,
2014-12-21 05:32:00,-999.0,-99.9,-100.00,SW,223,18.0,21.0,-999,-99.99,,,-99.99,,2014-12-21 13:32:00,
2014-12-21 05:52:00,-999.0,-99.9,-100.00,SW,218,19.0,21.0,-999,-99.99,,,-99.99,,2014-12-21 13:52:00,
2014-12-21 06:02:00,-999.0,-99.9,-100.00,SSW,211,16.0,19.0,-999,-99.99,,,-99.99,,2014-12-21 14:02:00,
2014-12-21 06:22:00,-999.0,-99.9,-100.00,SW,214,18.0,22.0,-999,-99.99,,,-99.99,,2014-12-21 14:22:00,
2014-12-21 06:32:00,-999.0,-99.9,-100.00,SW,216,17.0,21.0,-999,-99.99,,,-99.99,,2014-12-21 14:32:00,
2014-12-21 07:02:00,-999.0,-99.9,-100.00,SW,222,16.0,18.0,-999,-99.99,,,-99.99,,2014-12-21 15:02:00,
2014-12-21 07:22:00,-999.0,-99.9,-100.00,SW,226,15.0,17.0,-999,-99.99,,,-99.99,,2014-12-21 15:22:00,
2014-12-21 07:34:00,-999.0,-99.9,-100.00,SW,229,15.0,18.0,-999,-99.99,,,-99.99,,2014-12-21 15:34:00,
2014-12-21 07:44:00,-999.0,-99.9,-100.00,SW,227,16.0,18.0,-999,-99.99,,,-99.99,,2014-12-21 15:44:00,
2014-12-21 07:53:00,50.0,-99.9,-100.00,SW,226,16.0,18.0,-999,-99.99,,,-99.99,,2014-12-21 15:53:00,
2014-12-21 08:04:00,-999.0,-99.9,-100.00,SW,221,15.0,17.0,-999,-99.99,,,-99.99,,2014-12-21 16:04:00,
2014-12-21 08:24:00,-999.0,-99.9,-100.00,SW,228,13.0,16.0,-999,-99.99,,,-99.99,,2014-12-21 16:24:00,
2014-12-21 08:33:00,-999.0,-99.9,-100.00,SW,228,14.0,16.0,-999,-99.99,,,-99.99,,2014-12-21 16:33:00,
2014-12-21 08:53:00,-999.0,-99.9,-100.00,SW,223,14.0,16.0,-999,-99.99,,,-99.99,,2014-12-21 16:53:00,
2014-12-21 09:03:00,-999.0,-99.9,-100.00,SSW,210,13.0,14.0,-999,-99.99,,,-99.99,,2014-12-21 17:03:00,
2014-12-21 09:13:00,-999.0,-99.9,-100.00,SSW,211,12.0,14.0,-999,-99.99,,,-99.99,,2014-12-21 17:13:00,
2014-12-21 09:23:00,49.0,-99.9,-100.00,SSW,209,13.0,14.0,-999,-99.99,,,-99.99,,2014-12-21 17:23:00,
2014-12-21 09:33:00,-999.0,-99.9,-100.00,SSW,207,13.0,15.0,-999,-99.99,,,-99.99,,2014-12-21 17:33:00,
2014-12-21 09:53:00,-999.0,-99.9,-100.00,SSW,203,13.0,16.0,-999,-99.99,,,-99.99,,2014-12-21 17:53:00,
2014-12-21 10:02:00,-999.0,-99.9,-100.00,South,174,8.0,13.0,-999,-99.99,,,-99.99,,2014-12-21 18:02:00,
2014-12-21 10:23:00,-999.0,-99.9,-100.00,SSE,162,5.0,7.0,-999,-99.99,,,-99.99,,2014-12-21 18:23:00,
2014-12-21 10:33:00,-999.0,-99.9,-100.00,SSE,165,5.0,8.0,-999,-99.99,,,-99.99,,2014-12-21 18:33:00,
2014-12-21 10:42:00,-999.0,-99.9,-100.00,SSE,162,4.0,7.0,-999,-99.99,,,-99.99,,2014-12-21 18:42:00,
2014-12-21 10:52:00,49.0,-99.9,-100.00,SSW,197,13.0,15.0,-999,-99.99,,,-99.99,,2014-12-21 18:52:00,
2014-12-21 11:02:00,-999.0,-99.9,-100.00,South,174,9.0,13.0,-999,-99.99,,,-99.99,,2014-12-21 19:02:00,
2014-12-21 11:22:00,-999.0,-99.9,-100.00,SSE,165,4.0,8.0,-999,-99.99,,,-99.99,,2014-12-21 19:22:00,
2014-12-21 11:32:00,-999.0,-99.9,-100.00,SSE,153,5.0,11.0,-999,-99.99,,,-99.99,,2014-12-21 19:32:00,
2014-12-21 11:53:00,-999.0,-99.9,-100.00,SSE,164,5.0,11.0,-999,-99.99,,,-99.99,,2014-12-21 19:53:00,
2014-12-21 12:02:00,-999.0,-99.9,-100.00,SSW,196,12.0,13.0,-999,-99.99,,,-99.99,,2014-12-21 20:02:00,
2014-12-21 12:23:00,-999.0,-99.9,-100.00,South,169,5.0,12.0,-999,-99.99,,,-99.99,,2014-12-21 20:23:00,
2014-12-21 12:33:00,-999.0,-99.9,-100.00,South,178,10.0,12.0,-999,-99.99,,,-99.99,,2014-12-21 20:33:00,
2014-12-21 13:02:00,-999.0,-99.9,-100.00,SSW,209,17.0,19.0,-999,-99.99,,,-99.99,,2014-12-21 21:02:00,
2014-12-21 13:22:00,-999.0,-99.9,-100.00,SSW,210,19.0,22.0,-999,-99.99,,,-99.99,,2014-12-21 21:22:00,
2014-12-21 13:34:00,-999.0,-99.9,-100.00,SSW,205,19.0,23.0,-999,-99.99,,,-99.99,,2014-12-21 21:34:00,
2014-12-21 14:03:00,-999.0,-99.9,-100.00,SSW,196,15.0,19.0,-999,-99.99,,,-99.99,,2014-12-21 22:03:00,
2014-12-21 14:23:00,-999.0,-99.9,-100.00,SSW,199,16.0,19.0,-999,-99.99,,,-99.99,,2014-12-21 22:23:00,
2014-12-21 14:33:00,-999.0,-99.9,-100.00,SSW,200,18.0,21.0,-999,-99.99,,,-99.99,,2014-12-21 22:33:00,
2014-12-21 15:03:00,-999.0,-99.9,-100.00,SSW,196,15.0,18.0,-999,-99.99,,,-99.99,,2014-12-21 23:03:00,
2014-12-21 15:22:00,-999.0,-99.9,-100.00,SSW,192,15.0,16.0,-999,-99.99,,,-99.99,,2014-12-21 23:22:00,
2014-12-21 15:32:00,-999.0,-99.9,-100.00,SSW,194,15.0,16.0,-999,-99.99,,,-99.99,,2014-12-21 23:32:00,
2014-12-21 16:02:00,-999.0,-99.9,-100.00,SSE,164,5.0,10.0,-999,-99.99,,,-99.99,,2014-12-22 00:02:00,
2014-12-21 16:22:00,50.0,-99.9,-100.00,SSW,194,11.0,13.0,-999,-99.99,,,-99.99,,2014-12-22 00:22:00,
2014-12-21 16:32:00,-999.0,-99.9,-100.00,SSW,193,13.0,14.0,-999,-99.99,,,-99.99,,2014-12-22 00:32:00,
2014-12-21 16:52:00,50.0,-99.9,-100.00,South,180,11.0,14.0,-999,-99.99,,,-99.99,,2014-12-22 00:52:00,
2014-12-21 17:02:00,-999.0,-99.9,-100.00,South,179,11.0,14.0,-999,-99.99,,,-99.99,,2014-12-22 01:02:00,
2014-12-21 17:22:00,-999.0,-99.9,-100.00,SSE,167,6.0,12.0,-999,-99.99,,,-99.99,,2014-12-22 01:22:00,
2014-12-21 17:32:00,-999.0,-99.9,-100.00,South,175,9.0,12.0,-999,-99.99,,,-99.99,,2014-12-22 01:32:00,
2014-12-21 18:02:00,-999.0,-99.9,-100.00,SSW,202,12.0,15.0,-999,-99.99,,,-99.99,,2014-12-22 02:02:00,
2014-12-21 18:22:00,-999.0,-99.9,-100.00,SSW,208,15.0,18.0,-999,-99.99,,,-99.99,,2014-12-22 02:22:00,
2014-12-21 18:32:00,-999.0,-99.9,-100.00,SSW,201,18.0,20.0,-999,-99.99,,,-99.99,,2014-12-22 02:32:00,
2014-12-21 19:02:00,-999.0,-99.9,-100.00,South,179,10.0,13.0,-999,-99.99,,,-99.99,,2014-12-22 03:02:00,
2014-12-21 19:12:00,50.0,-99.9,-100.00,South,179,12.0,15.0,-999,-99.99,,,-99.99,,2014-12-22 03:12:00,
2014-12-21 19:22:00,-999.0,-99.9,-100.00,South,191,13.0,13.0,-999,-99.99,,,-99.99,,2014-12-22 03:22:00,
2014-12-21 19:34:00,-999.0,-99.9,-100.00,South,183,11.0,12.0,-999,-99.99,,,-99.99,,2014-12-22 03:34:00,
2014-12-21 20:04:00,-999.0,-99.9,-100.00,SSW,192,9.0,12.0,-999,-99.99,,,-99.99,,2014-12-22 04:04:00,
2014-12-21 20:24:00,-999.0,-99.9,-100.00,SSW,198,10.0,13.0,-999,-99.99,,,-99.99,,2014-12-22 04:24:00,
2014-12-21 20:33:00,-999.0,-99.9,-100.00,SSW,204,14.0,16.0,-999,-99.99,,,-99.99,,2014-12-22 04:33:00,
2014-12-21 21:03:00,-999.0,-99.9,-100.00,SSW,208,14.0,18.0,-999,-99.99,,,-99.99,,2014-12-22 05:03:00,
2014-12-21 21:23:00,-999.0,-99.9,-100.00,SSW,208,18.0,20.0,-999,-99.99,,,-99.99,,2014-12-22 05:23:00,
2014-12-21 21:33:00,-999.0,-99.9,-100.00,SSW,206,14.0,15.0,-999,-99.99,,,-99.99,,2014-12-22 05:33:00,
2014-12-21 22:02:00,-999.0,-99.9,-100.00,SSW,201,13.0,16.0,-999,-99.99,,,-99.99,,2014-12-22 06:02:00,